Weather History for Dalton, GA

Change the Weather History Date:

Friday, October 12, 2012

  Actual Average Record
Temperature  
Mean Temperature 62 °F -  
Max Temperature 68 °F 74 °F 87 °F (1954)
Min Temperature 55 °F 48 °F 32 °F (2000)
Degree Days  
Heating Degree Days 4    
Growing Degree Days 12 (Base 50)    
Moisture  
Dew Point 58 °F    
Average Humidity 91    
Maximum Humidity 100    
Minimum Humidity 78    
Precipitation  
Precipitation 0.00 in - - ()
Sea Level Pressure  
Sea Level Pressure 30.26 in    
Wind  
Wind Speed 1 mph (NNW)    
Max Wind Speed 8 mph    
Max Gust Speed -    
Visibility 10 miles    
Events Rain , Thunderstorm    
Averages and records for this station are not official NWS values.
T = Trace of Precipitation, MM = Missing Value Source: NWS Daily Summary

Daily Weather History Graph

Daily Weather History Graph

Search for Another Location

Airport:

Trip Planner

Search our weather history database for the weather conditions in past years. The results will help you decide how hot, cold, wet, or windy it might be!

Date:

Astronomy

Oct. 12, 2012 Rise Set
Actual Time 7:43 AM EDT 7:07 PM EDT
Civil Twilight 7:17 AM EDT 7:33 PM EDT
Nautical Twilight 6:48 AM EDT 8:02 PM EDT
Astronomical Twilight 6:19 AM EDT 8:31 PM EDT
Moon 4:32 AM EDT (10/12) 5:11 PM EDT (10/12)
Length of Visible Light 12h 15m
Length of Day
11h 24m
Waning Crescent, 11% of the Moon is Illuminated
Oct 12
Waning Crescent
Oct 15
New
Oct 21
First Quarter
Oct 29
Full
Nov 6
Last Quarter

Hourly Weather History & Observations

Time (EDT) Temp. Dew Point Humidity Pressure Visibility Wind Dir Wind Speed Gust Speed Precip Events Conditions
12:15 AM 59.0 °F 53.6 °F 82% 30.25 in 10.0 mi Calm Calm - N/A   Overcast
12:35 AM 59.0 °F 53.6 °F 82% 30.26 in 10.0 mi Calm Calm - N/A   Overcast
12:55 AM 59.0 °F 53.6 °F 82% 30.25 in 10.0 mi Calm Calm - N/A   Overcast
1:15 AM 59.0 °F 53.6 °F 82% 30.25 in 10.0 mi Calm Calm - N/A   Overcast
1:35 AM 59.0 °F 53.6 °F 82% 30.25 in 10.0 mi Calm Calm - N/A   Overcast
1:55 AM 59.0 °F 55.4 °F 88% 30.24 in 10.0 mi Calm Calm - N/A   Overcast
2:15 AM 59.0 °F 55.4 °F 88% 30.23 in 10.0 mi Calm Calm - N/A   Overcast
2:35 AM 59.0 °F 55.4 °F 88% 30.23 in 10.0 mi Calm Calm - N/A   Overcast
2:55 AM 59.0 °F 55.4 °F 88% 30.23 in 10.0 mi Calm Calm - N/A   Overcast
3:15 AM 59.0 °F 55.4 °F 88% 30.23 in 10.0 mi Calm Calm - N/A   Overcast
3:35 AM 59.0 °F 55.4 °F 88% 30.23 in 10.0 mi Calm Calm - N/A   Overcast
4:15 AM 59.0 °F 55.4 °F 88% 30.22 in 10.0 mi Calm Calm - N/A   Overcast
4:35 AM 59.0 °F 55.4 °F 88% 30.22 in 10.0 mi Calm Calm - N/A   Overcast
4:55 AM 59.0 °F 57.2 °F 94% 30.22 in 10.0 mi Calm Calm - N/A   Overcast
5:15 AM 59.0 °F 57.2 °F 94% 30.22 in 10.0 mi Calm Calm - N/A   Overcast
5:35 AM 59.0 °F 57.2 °F 94% 30.22 in 10.0 mi Calm Calm - N/A   Overcast
5:55 AM 59.0 °F 55.4 °F 88% 30.23 in 10.0 mi Calm Calm - N/A   Overcast
6:15 AM 59.0 °F 55.4 °F 88% 30.23 in 10.0 mi Calm Calm - N/A   Overcast
6:35 AM 59.0 °F 57.2 °F 94% 30.24 in 10.0 mi Calm Calm - N/A Thunderstorm Overcast
6:55 AM 59.0 °F 57.2 °F 94% 30.24 in 10.0 mi Calm Calm - N/A Rain Light Rain
7:15 AM 59.0 °F 59.0 °F 100% 30.24 in 10.0 mi Calm Calm - N/A   Overcast
7:35 AM 59.0 °F 59.0 °F 100% 30.28 in 10.0 mi North 8.1 mph - N/A Thunderstorm Overcast
7:55 AM 55.4 °F 55.4 °F 100% 30.29 in 5.0 mi North 4.6 mph - N/A Rain Light Rain
8:35 AM 55.4 °F 55.4 °F 100% 30.28 in 10.0 mi Calm Calm - N/A   Mostly Cloudy
8:55 AM 55.4 °F 55.4 °F 100% 30.27 in 10.0 mi Calm Calm - N/A Rain Light Rain
9:15 AM 55.4 °F 55.4 °F 100% 30.27 in 7.0 mi SW 3.5 mph - N/A Rain Light Rain
9:35 AM 57.2 °F 57.2 °F 100% 30.28 in 7.0 mi Calm Calm - N/A Rain Light Rain
9:55 AM 57.2 °F 57.2 °F 100% 30.27 in 7.0 mi Calm Calm - N/A   Scattered Clouds
10:15 AM 59.0 °F 59.0 °F 100% 30.27 in 10.0 mi Calm Calm - N/A   Scattered Clouds
10:55 AM 60.8 °F 59.0 °F 94% 30.27 in 10.0 mi SW 3.5 mph - N/A   Scattered Clouds
11:15 AM 62.6 °F 59.0 °F 88% 30.26 in 10.0 mi Calm Calm - N/A   Scattered Clouds
11:35 AM 62.6 °F 60.8 °F 94% 30.27 in 10.0 mi North 4.6 mph - N/A   Scattered Clouds
11:55 AM 62.6 °F 60.8 °F 94% 30.28 in 10.0 mi NW 4.6 mph - N/A   Clear
12:15 PM 64.4 °F 60.8 °F 88% 30.28 in 10.0 mi NW 3.5 mph - N/A   Clear
12:35 PM 68.0 °F 60.8 °F 78% 30.28 in 10.0 mi WNW 5.8 mph - N/A   Clear
12:55 PM 68.0 °F 60.8 °F 78% 30.28 in 10.0 mi NW 6.9 mph - N/A   Scattered Clouds
1:15 PM 68.0 °F 60.8 °F 78% 30.28 in 10.0 mi NNW 5.8 mph - N/A   Mostly Cloudy
1:55 PM 68.0 °F 60.8 °F 78% 30.27 in 10.0 mi NNW 5.8 mph - N/A   Overcast
2:35 PM 66.2 °F 60.8 °F 83% 30.26 in 10.0 mi North 4.6 mph - N/A   Overcast
2:55 PM 68.0 °F 60.8 °F 78% 30.26 in 10.0 mi NNW 8.1 mph - N/A   Overcast
3:15 PM 68.0 °F 60.8 °F 78% 30.25 in 10.0 mi NNW 6.9 mph - N/A   Overcast
4:15 PM 66.2 °F 60.8 °F 83% 30.25 in 10.0 mi NNE 4.6 mph - N/A   Overcast
4:35 PM 64.4 °F 60.8 °F 88% 30.25 in 10.0 mi North 4.6 mph - N/A   Overcast
4:55 PM 64.4 °F 60.8 °F 88% 30.25 in 10.0 mi North 4.6 mph - N/A   Overcast
5:15 PM 64.4 °F 60.8 °F 88% 30.25 in 10.0 mi North 5.8 mph - N/A   Overcast
5:35 PM 64.4 °F 60.8 °F 88% 30.25 in 10.0 mi North 5.8 mph - N/A   Overcast
5:55 PM 64.4 °F 60.8 °F 88% 30.25 in 10.0 mi North 4.6 mph - N/A   Overcast
6:15 PM 62.6 °F 60.8 °F 94% 30.26 in 10.0 mi North 5.8 mph - N/A   Overcast
6:55 PM 62.6 °F 60.8 °F 94% 30.27 in 10.0 mi NNW 4.6 mph - N/A   Overcast
7:15 PM 62.6 °F 60.8 °F 94% 30.27 in 10.0 mi NW 3.5 mph - N/A   Overcast
7:35 PM 62.6 °F 60.8 °F 94% 30.27 in 10.0 mi NW 3.5 mph - N/A   Overcast
7:55 PM 62.6 °F 60.8 °F 94% 30.27 in 10.0 mi NW 3.5 mph - N/A   Overcast
8:15 PM 62.6 °F 60.8 °F 94% 30.27 in 10.0 mi NNW 3.5 mph - N/A   Overcast
8:35 PM 62.6 °F 60.8 °F 94% 30.27 in 10.0 mi Calm Calm - N/A   Overcast
9:15 PM 62.6 °F 60.8 °F 94% 30.27 in 10.0 mi Calm Calm - N/A   Overcast
9:35 PM 62.6 °F 60.8 °F 94% 30.27 in 10.0 mi Calm Calm - N/A   Overcast
10:15 PM 60.8 °F 60.8 °F 100% 30.29 in 10.0 mi Calm Calm - N/A   Overcast
10:35 PM 60.8 °F 60.8 °F 100% 30.29 in 10.0 mi Calm Calm - N/A   Overcast
10:55 PM 60.8 °F 60.8 °F 100% 30.29 in 10.0 mi Calm Calm - N/A   Overcast
11:15 PM 60.8 °F 60.8 °F 100% 30.29 in 10.0 mi Calm Calm - N/A   Overcast
11:35 PM 60.8 °F 60.8 °F 100% 30.30 in 7.0 mi Calm Calm - N/A   Overcast